Location: Grasslands National Park East Block
(49.0708°N, 106.5295°W)
Time: 12:26:18
(UTC-06:00)

SR - Pass Details

Date: 28 October 2019
Orbit: 574 x 882 km, 66.7° (Epoch: 11 November)

Event Time Altitude Azimuth Distance (km) Brightness Sun altitude
Exits shadow 02:52:23 14° 41° (NE) 2,288 ? -46.1°
Drops below altitude 10° 02:53:48 10° 54° (NE) 2,542 ? -45.9°
Sets 02:57:23 0° 75° (ENE) 3,484 ? -45.5°
